Weather History for 06344 - January, 2014

Change the Weather History Date:

Wednesday, January 1, 2014

  Actual Average Record
Temperature  
Mean Temperature 44 °F -  
Max Temperature 48 °F 41 °F - ()
Min Temperature 41 °F 33 °F - ()
Degree Days  
Heating Degree Days 20    
Moisture  
Dew Point 41 °F    
Average Humidity 85    
Maximum Humidity 93    
Minimum Humidity 71    
Precipitation  
Precipitation 0.08 in - - ()
Sea Level Pressure  
Sea Level Pressure 29.61 in    
Wind  
Wind Speed 15 mph ()    
Max Wind Speed 22 mph    
Max Gust Speed 36 mph    
Visibility 7.9 miles    
Events Rain    
T = Trace of Precipitation, MM = Missing Value Source: Averaged Metar Reports

Daily Weather History Graph

Daily Weather History Graph

Search for Another Location

Airport or City:

Trip Planner

Search our weather history database for the weather conditions in past years. The results will help you decide how hot, cold, wet, or windy it might be!

Date:

Astronomy

Jan. 01, 2014 Rise Set
Actual Time 8:50 AM CET 4:41 PM CET
Civil Twilight 8:09 AM CET 5:22 PM CET
Nautical Twilight 7:26 AM CET 6:05 PM CET
Astronomical Twilight 6:45 AM CET 6:46 PM CET
Moon 8:18 AM CET (1/1) 5:17 PM CET (1/1)
Length of Visible Light 9h 12m
Length of Day
7h 51m
Waning Crescent, 0% of the Moon is Illuminated
Jan 1
Waning Crescent
Jan 1
New
Jan 8
First Quarter
Jan 16
Full
Jan 24
Last Quarter

Hourly Weather History & Observations

Time (CET) Temp. Windchill Dew Point Humidity Pressure Visibility Wind Dir Wind Speed Gust Speed Precip Events Conditions
12:00 AM 43 °F - 41 °F 91% 29.72 in 6 mi South 15.7 mph - - Rain Light Rain
12:25 AM 42.8 °F 35.4 °F 41.0 °F 93% 29.71 in 3.1 mi South 15.0 mph - N/A Rain Light Rain
12:55 AM 42.8 °F 35.8 °F 41.0 °F 93% 29.71 in - South 13.8 mph - N/A   Mostly Cloudy
1:00 AM 43 °F - 42 °F 92% 29.72 in 3 mi SSW 13.4 mph - - Rain Rain
1:25 AM 44.6 °F 37.8 °F 41.0 °F 87% 29.71 in 2.5 mi SSW 15.0 mph - N/A   Overcast
1:55 AM 44.6 °F 37.8 °F 42.8 °F 93% 29.71 in 3.7 mi SSW 15.0 mph - N/A Rain Light Rain
2:00 AM 44 °F - 42 °F 89% 29.73 in 4 mi SSW 13.4 mph - - Rain Rain
2:25 AM 44.6 °F 37.8 °F 41.0 °F 87% 29.71 in 5.0 mi SSW 15.0 mph - N/A   Mostly Cloudy
2:55 AM 44.6 °F 37.2 °F 41.0 °F 87% 29.71 in 6.2 mi SSW 17.3 mph - N/A   Mostly Cloudy
3:00 AM 44 °F - 41 °F 85% 29.74 in 7 mi SSW 17.9 mph - -   Partly Cloudy
3:25 AM 42.8 °F 36.2 °F 41.0 °F 93% 29.74 in 6.2 mi SSW 12.7 mph - N/A   Mostly Cloudy
3:55 AM 42.8 °F 36.2 °F 41.0 °F 93% 29.71 in 6.2 mi South 12.7 mph - N/A   Scattered Clouds
4:00 AM 42 °F - 40 °F 90% 29.74 in 8 mi South 13.4 mph - -   Partly Cloudy
4:25 AM 41.0 °F 34.3 °F 39.2 °F 93% 29.71 in 6.2 mi South 11.5 mph - N/A   Partly Cloudy
4:55 AM 42.8 °F 36.2 °F 39.2 °F 87% 29.71 in 6.2 mi South 12.7 mph - N/A   Partly Cloudy
5:00 AM 42 °F - 40 °F 88% 29.74 in 11 mi South 13.4 mph - -   Partly Cloudy
5:25 AM 42.8 °F 35.8 °F 39.2 °F 87% 29.71 in 6.2 mi South 13.8 mph - N/A   Partly Cloudy
5:55 AM 42.8 °F 35.8 °F 39.2 °F 87% 29.71 in 6.2 mi South 13.8 mph - N/A   Unknown
6:00 AM 42 °F - 39 °F 84% 29.74 in 15 mi South 15.7 mph - -   Partly Cloudy
6:25 AM 41.0 °F 33.1 °F 39.2 °F 93% 29.71 in 6.2 mi South 15.0 mph - N/A   Scattered Clouds
6:55 AM 41.0 °F 33.9 °F 39.2 °F 93% 29.71 in 6.2 mi South 12.7 mph - N/A   Partly Cloudy
7:00 AM 42 °F - 39 °F 84% 29.73 in 17 mi South 13.4 mph - -   Partly Cloudy
7:25 AM 42.8 °F 36.2 °F 39.2 °F 87% 29.71 in 6.2 mi South 12.7 mph - N/A   Mostly Cloudy
7:55 AM 42.8 °F 36.2 °F 39.2 °F 87% 29.71 in 6.2 mi South 12.7 mph - N/A   Mostly Cloudy
8:00 AM 42 °F - 39 °F 84% 29.73 in 14 mi South 13.4 mph - -   Partly Cloudy
8:25 AM 42.8 °F 35.8 °F 39.2 °F 87% 29.71 in 6.2 mi South 13.8 mph - N/A   Mostly Cloudy
8:55 AM 42.8 °F 35.4 °F 39.2 °F 87% 29.71 in 6.2 mi South 15.0 mph - N/A   Overcast
9:00 AM 43 °F - 40 °F 83% 29.73 in 15 mi South 15.7 mph - -   Overcast
9:25 AM 42.8 °F 34.5 °F 39.2 °F 87% 29.71 in 6.2 mi South 18.4 mph - N/A   Overcast
9:55 AM 42.8 °F 35.1 °F 39.2 °F 87% 29.71 in 6.2 mi South 16.1 mph - N/A   Overcast
10:00 AM 44 °F - 40 °F 81% 29.73 in 11 mi South 15.7 mph - -   Overcast
10:25 AM 44.6 °F 37.4 °F 39.2 °F 81% 29.71 in 6.2 mi South 16.1 mph - N/A   Overcast
10:55 AM 44.6 °F 36.9 °F 41.0 °F 87% 29.71 in 6.2 mi South 18.4 mph - N/A   Overcast
11:00 AM 44 °F - 40 °F 81% 29.72 in 15 mi South 20.1 mph - -   Overcast
11:25 AM 44.6 °F 36.6 °F 41.0 °F 87% 29.71 in 6.2 mi South 19.6 mph - N/A   Mostly Cloudy
11:55 AM 44.6 °F 36.6 °F 39.2 °F 81% 29.68 in 6.2 mi South 19.6 mph - N/A   Overcast
12:00 PM 44 °F - 40 °F 80% 29.70 in 12 mi South 20.1 mph - -   Overcast
12:25 PM 44.6 °F 36.9 °F 39.2 °F 81% 29.68 in 6.2 mi South 18.4 mph - N/A   Mostly Cloudy
12:55 PM 44.6 °F 36.9 °F 41.0 °F 87% 29.65 in 6.2 mi South 18.4 mph 29.9 mph N/A   Scattered Clouds
1:00 PM 46 °F - 40 °F 73% 29.66 in 15 mi South 17.9 mph - -   Partly Cloudy
1:25 PM 46.4 °F 39.5 °F 39.2 °F 76% 29.65 in 6.2 mi South 17.3 mph - N/A   Partly Cloudy
1:55 PM 46.4 °F 39.5 °F 41.0 °F 81% 29.62 in 6.2 mi South 17.3 mph - N/A   Unknown
2:00 PM 46 °F - 40 °F 72% 29.63 in 19 mi South 17.9 mph - -   Scattered Clouds
2:25 PM 46.4 °F 39.5 °F 41.0 °F 81% 29.59 in 6.2 mi SSE 17.3 mph - N/A   Unknown
2:55 PM 46.4 °F 39.2 °F 41.0 °F 81% 29.59 in 6.2 mi SSE 18.4 mph - N/A   Unknown
3:00 PM 47 °F - 40 °F 71% 29.59 in 16 mi SSE 17.9 mph - -   Partly Cloudy
3:25 PM 46.4 °F 39.2 °F 41.0 °F 81% 29.56 in 6.2 mi SSE 18.4 mph - N/A   Mostly Cloudy
3:55 PM 46.4 °F 39.5 °F 41.0 °F 81% 29.56 in 6.2 mi SSE 17.3 mph - N/A   Overcast
4:00 PM 47 °F - 40 °F 71% 29.56 in 19 mi SSE 15.7 mph - -   Overcast
4:25 PM 46.4 °F 39.8 °F 41.0 °F 81% 29.53 in 6.2 mi SSE 16.1 mph - N/A Rain Light Drizzle
4:55 PM 46.4 °F 39.5 °F 41.0 °F 81% 29.50 in 6.2 mi SSE 17.3 mph - N/A   Drizzle
5:00 PM 47 °F - 41 °F 74% 29.52 in 10 mi SSE 17.9 mph - - Rain Drizzle
5:25 PM 46.4 °F 38.7 °F 41.0 °F 81% 29.50 in 6.2 mi SSE 20.7 mph - N/A Rain Light Rain
5:55 PM 46.4 °F 38.7 °F 42.8 °F 87% 29.47 in 6.2 mi SSE 20.7 mph 32.2 mph N/A Rain Light Rain Showers
6:00 PM 47 °F - 43 °F 81% 29.49 in 7 mi SSE 22.4 mph - - Rain Rain
6:25 PM 46.4 °F 39.0 °F 42.8 °F 87% 29.47 in 6.2 mi SSE 19.6 mph 35.7 mph N/A Rain Light Rain
6:55 PM 46.4 °F 38.7 °F 44.6 °F 93% 29.44 in 6.2 mi SSE 20.7 mph - N/A Rain Light Rain
7:00 PM 47 °F - 44 °F 85% 29.46 in 9 mi SSE 20.1 mph - - Rain Light Rain
7:25 PM 46.4 °F 38.7 °F 44.6 °F 93% 29.44 in 6.2 mi SSE 20.7 mph - N/A Rain Light Rain
7:55 PM 48.2 °F - 44.6 °F 87% 29.42 in 6.2 mi SSE 18.4 mph - N/A Rain Light Rain
8:00 PM 48 °F - 44 °F 81% 29.44 in 14 mi SSE 20.1 mph - - Rain Light Rain
8:25 PM 48.2 °F - 44.6 °F 87% 29.42 in 6.2 mi SSE 18.4 mph - N/A   Overcast
8:55 PM 48.2 °F - 44.6 °F 87% 29.39 in 6.2 mi SSE 20.7 mph - N/A   Drizzle
9:00 PM 48 °F - 44 °F 82% 29.40 in 11 mi SSE 17.9 mph - - Rain Light Rain
9:25 PM 48.2 °F - 44.6 °F 87% 29.39 in 6.2 mi SSE 20.7 mph - N/A Rain Light Rain
9:55 PM 48.2 °F - 44.6 °F 87% 29.36 in 6.2 mi SSE 19.6 mph - N/A   Mostly Cloudy
10:00 PM 48 °F - 45 °F 84% 29.38 in 17 mi SSE 17.9 mph - - Rain Light Rain Showers
10:25 PM 48.2 °F - 44.6 °F 87% 29.36 in 6.2 mi SSE 20.7 mph - N/A Rain Light Rain
10:55 PM 48.2 °F - 44.6 °F 87% 29.36 in 6.2 mi South 18.4 mph - N/A Rain Light Rain Showers
11:00 PM 48 °F - 45 °F 87% 29.37 in 6 mi South 17.9 mph - - Rain Rain
11:25 PM 48.2 °F - 46.4 °F 93% 29.36 in 6.2 mi South 18.4 mph - N/A Rain Light Rain Showers
11:55 PM 48.2 °F - 46.4 °F 93% 29.33 in 6.2 mi South 18.4 mph - N/A Rain Light Rain